Weather History for Ahoskie, NC

Change the Weather History Date:

Tuesday, January 22, 2013

  Actual Average (KEMV) Record (KEMV)
Temperature  
Mean Temperature 28 °F -  
Max Temperature 38 °F 45 °F 65 °F (1990)
Min Temperature 18 °F 21 °F -2 °F (1985)
Degree Days  
Heating Degree Days 36    
Moisture  
Dew Point 2 °F    
Average Humidity 33    
Maximum Humidity 72    
Minimum Humidity 12    
Precipitation  
Precipitation 0.00 in - - ()
Sea Level Pressure  
Sea Level Pressure 30.16 in    
Wind  
Wind Speed 2 mph (NW)    
Max Wind Speed 12 mph    
Max Gust Speed 22 mph    
Visibility 10 miles    
Events      
Averages and records for this station are not official NWS values.
T = Trace of Precipitation, MM = Missing Value Source: NWS Daily Summary

Daily Weather History Graph

Daily Weather History Graph

Search for Another Location

Airport:

Trip Planner

Search our weather history database for the weather conditions in past years. The results will help you decide how hot, cold, wet, or windy it might be!

Date:

Astronomy

Jan. 22, 2013 Rise Set
Actual Time 7:16 AM EST 5:24 PM EST
Civil Twilight 6:48 AM EST 5:52 PM EST
Nautical Twilight 6:17 AM EST 6:23 PM EST
Astronomical Twilight 5:46 AM EST 6:54 PM EST
Moon 1:47 PM EST (1/22) 3:34 AM EST (1/22)
Length of Visible Light 11h 03m
Length of Day
10h 08m
Waxing Gibbous, 82% of the Moon is Illuminated
Jan 22
Waxing Gibbous
Jan 26
Full
Feb 3
Last Quarter
Feb 10
New
Feb 17
First Quarter

Hourly Weather History & Observations

Time (EST) Temp. Windchill Dew Point Humidity Pressure Visibility Wind Dir Wind Speed Gust Speed Precip Events Conditions
12:15 AM 38.8 °F - 17.2 °F 42% 29.93 in 10.0 mi Calm Calm - N/A   Clear
12:35 AM 36.0 °F - 25.3 °F 65% 29.94 in 10.0 mi Calm Calm - N/A   Clear
12:55 AM 35.1 °F - 23.5 °F 63% 29.95 in 10.0 mi Calm Calm - N/A   Clear
1:15 AM 36.1 °F - 20.8 °F 54% 29.96 in 10.0 mi Calm Calm - N/A   Clear
1:35 AM 37.9 °F - 16.3 °F 42% 29.97 in 10.0 mi Calm Calm - N/A   Clear
1:55 AM 37.9 °F - 14.0 °F 38% 29.97 in 10.0 mi Calm Calm - N/A   Clear
2:15 AM 37.6 °F - 13.3 °F 37% 29.99 in 10.0 mi Calm Calm - N/A   Clear
2:55 AM 36.5 °F - 11.3 °F 35% 30.00 in 10.0 mi Calm Calm - N/A   Clear
3:15 AM 36.5 °F 32.7 °F 7.5 °F 30% 30.01 in 10.0 mi NW 4.6 mph - N/A   Clear
3:35 AM 35.8 °F 30.9 °F 6.1 °F 29% 30.02 in 10.0 mi NNW 5.8 mph - N/A   Clear
3:55 AM 35.1 °F 31.0 °F 4.6 °F 28% 30.03 in 10.0 mi NW 4.6 mph - N/A   Clear
4:15 AM 35.1 °F - 6.4 °F 30% 30.04 in 10.0 mi Calm Calm - N/A   Clear
4:35 AM 33.4 °F - 5.5 °F 31% 30.04 in 10.0 mi Calm Calm - N/A   Clear
4:55 AM 32.5 °F - 4.5 °F 31% 30.06 in 10.0 mi Calm Calm - N/A   Clear
5:15 AM 32.5 °F - 4.8 °F 31% 30.07 in 10.0 mi Calm Calm - N/A   Clear
5:35 AM 32.5 °F - 6.3 °F 33% 30.08 in 10.0 mi Calm Calm - N/A   Clear
5:55 AM 32.2 °F - 7.2 °F 35% 30.10 in 10.0 mi Calm Calm - N/A   Clear
6:15 AM 30.2 °F - 7.2 °F 38% 30.11 in 10.0 mi Calm Calm - N/A   Clear
6:35 AM 30.2 °F - 6.6 °F 37% 30.13 in 10.0 mi Calm Calm - N/A   Clear
6:55 AM 30.2 °F 26.7 °F 7.7 °F 39% 30.14 in 10.0 mi NNW 3.5 mph - N/A   Clear
7:15 AM 30.2 °F - 9.5 °F 42% 30.15 in 10.0 mi Calm Calm - N/A   Clear
7:35 AM 30.2 °F - 8.4 °F 40% 30.17 in 10.0 mi Calm Calm - N/A   Clear
7:55 AM 30.2 °F - 9.5 °F 42% 30.17 in 10.0 mi Calm Calm - N/A   Clear
8:15 AM 30.2 °F 25.4 °F 6.8 °F 37% 30.18 in 10.0 mi NNW 4.6 mph - N/A   Clear
8:55 AM 31.8 °F 26.2 °F 4.1 °F 31% 30.20 in 10.0 mi NW 5.8 mph - N/A   Clear
9:15 AM 32.2 °F 25.8 °F 1.8 °F 28% 30.20 in 10.0 mi NNW 6.9 mph 16.1 mph N/A   Clear
9:35 AM 32.5 °F 24.8 °F 0.9 °F 26% 30.20 in 10.0 mi NNW 9.2 mph 18.4 mph N/A   Clear
9:55 AM 32.5 °F 24.2 °F -2.0 °F 23% 30.21 in 10.0 mi NNW 10.4 mph 16.1 mph N/A   Clear
10:15 AM 32.5 °F 26.2 °F -3.8 °F 21% 30.22 in 10.0 mi NW 6.9 mph - N/A   Clear
10:55 AM 32.5 °F 27.1 °F -5.4 °F 19% 30.21 in 10.0 mi WNW 5.8 mph 18.4 mph N/A   Clear
11:15 AM 35.1 °F 30.1 °F -4.0 °F 19% 30.20 in 10.0 mi West 5.8 mph - N/A   Clear
11:35 AM 35.1 °F 26.9 °F -4.9 °F 18% 30.20 in 10.0 mi NNW 11.5 mph 21.9 mph N/A   Clear
11:55 AM 35.1 °F 28.6 °F -7.1 °F 16% 30.20 in 10.0 mi NNW 8.1 mph - N/A   Clear
12:15 PM 34.9 °F 29.9 °F -7.8 °F 16% 30.19 in 10.0 mi WNW 5.8 mph - N/A   Clear
12:35 PM 35.1 °F 30.1 °F -11.4 °F 13% 30.18 in 10.0 mi NW 5.8 mph - N/A   Clear
12:55 PM 35.1 °F 30.1 °F -11.2 °F 13% 30.18 in 10.0 mi NW 5.8 mph - N/A   Clear
1:15 PM 35.1 °F 29.3 °F -6.5 °F 17% 30.18 in 10.0 mi NW 6.9 mph - N/A   Clear
1:55 PM 35.1 °F 31.0 °F -6.2 °F 17% 30.17 in 10.0 mi West 4.6 mph - N/A   Clear
2:15 PM 35.1 °F 32.2 °F -8.0 °F 16% 30.17 in 10.0 mi West 3.5 mph - N/A   Clear
2:35 PM 35.1 °F 30.1 °F -8.0 °F 16% 30.17 in 10.0 mi West 5.8 mph - N/A   Clear
2:55 PM 35.1 °F 31.0 °F -11.0 °F 14% 30.17 in 10.0 mi NW 4.6 mph - N/A   Clear
3:15 PM 35.1 °F 30.1 °F -10.3 °F 14% 30.17 in 10.0 mi West 5.8 mph - N/A   Clear
3:35 PM 35.1 °F 31.0 °F -10.5 °F 14% 30.18 in 10.0 mi West 4.6 mph - N/A   Clear
3:55 PM 33.6 °F 27.5 °F -9.6 °F 15% 30.19 in 10.0 mi WNW 6.9 mph - N/A   Clear
4:15 PM 32.5 °F 28.1 °F -12.8 °F 14% 30.20 in 10.0 mi NW 4.6 mph - N/A   Clear
4:35 PM 32.5 °F 26.2 °F -15.5 °F 12% 30.21 in 10.0 mi WNW 6.9 mph - N/A   Clear
4:55 PM 32.5 °F 29.3 °F -11.2 °F 15% 30.21 in 10.0 mi NW 3.5 mph - N/A   Clear
5:15 PM 32.0 °F - -9.8 °F 16% 30.22 in 10.0 mi Calm Calm - N/A   Clear
5:35 PM 30.2 °F - -9.4 °F 18% 30.23 in 10.0 mi Calm Calm - N/A   Clear
5:55 PM 30.2 °F - -7.6 °F 19% 30.24 in 10.0 mi Calm Calm - N/A   Clear
6:15 PM 30.2 °F - -5.8 °F 21% 30.24 in 10.0 mi Calm Calm - N/A   Clear
6:35 PM 30.2 °F - -5.4 °F 21% 30.25 in 10.0 mi Calm Calm - N/A   Clear
6:55 PM 27.7 °F - -1.5 °F 28% 30.25 in 10.0 mi Calm Calm - N/A   Clear
7:15 PM 26.6 °F - -1.3 °F 30% 30.26 in 10.0 mi Calm Calm - N/A   Clear
7:35 PM 25.3 °F - -0.6 °F 33% 30.26 in 10.0 mi Calm Calm - N/A   Clear
7:55 PM 25.3 °F - 1.4 °F 36% 30.26 in 10.0 mi Calm Calm - N/A   Clear
8:15 PM 25.3 °F - 3.0 °F 38% 30.26 in 10.0 mi Calm Calm - N/A   Clear
8:35 PM 25.3 °F - 9.1 °F 50% 30.26 in 10.0 mi Calm Calm - N/A   Clear
8:55 PM 25.3 °F - 7.9 °F 48% 30.27 in 10.0 mi Calm Calm - N/A   Clear
9:15 PM 25.3 °F - 7.3 °F 47% 30.27 in 10.0 mi Calm Calm - N/A   Clear
9:35 PM 22.1 °F - 11.1 °F 63% 30.27 in 10.0 mi Calm Calm - N/A   Clear
9:55 PM 22.8 °F - 9.0 °F 55% 30.27 in 10.0 mi Calm Calm - N/A   Clear
10:15 PM 21.4 °F - 9.3 °F 60% 30.27 in 10.0 mi Calm Calm - N/A   Clear
10:35 PM 21.7 °F - 10.2 °F 61% 30.28 in 10.0 mi Calm Calm - N/A   Clear
10:55 PM 20.3 °F - 10.0 °F 65% 30.30 in 10.0 mi Calm Calm - N/A   Clear
11:15 PM 19.6 °F - 10.8 °F 69% 30.30 in 10.0 mi Calm Calm - N/A   Clear
11:55 PM 18.5 °F - 10.8 °F 72% 30.30 in 10.0 mi Calm Calm - N/A   Clear